Location: Newark
(54.3386°S, 169.8415°W)
Time: 14:13:36
(UTC+00:00)

Transit 2A - All Passes

Search period start: 22 October 2019 00:00
Search period end: 01 November 2019 00:00
Orbit: 600 x 958 km, 66.7° (Epoch: 21 October)

Date Brightness Start Highest point End Pass type
(mag) Time Alt. Az. Time Alt. Az. Time Alt. Az.
22 Oct - 00:10:13 10° SW 00:15:46 33° SSE 00:21:29 10° E daylight
22 Oct - 01:53:39 10° SW 01:59:58 76° SE 02:06:23 10° NE daylight
22 Oct - 03:37:20 10° SW 03:42:54 33° WNW 03:48:28 10° N daylight
22 Oct - 16:43:36 10° NE 16:46:04 13° E 16:48:37 10° ESE daylight
22 Oct - 18:22:42 10° NNW 18:28:01 60° ENE 18:33:55 10° SE daylight
22 Oct - 20:06:10 10° WNW 20:11:33 45° SSW 20:17:27 10° SE daylight
22 Oct - 21:51:19 10° WSW 21:56:17 27° S 22:01:31 10° SE daylight
22 Oct - 23:35:58 10° SW 23:41:20 30° SSE 23:46:54 10° ESE daylight
23 Oct - 01:19:30 10° SW 01:25:44 62° SE 01:32:06 10° ENE daylight
23 Oct - 03:03:01 10° SW 03:08:56 43° WNW 03:14:53 10° N daylight
23 Oct - 17:48:52 10° N 17:54:00 46° ENE 17:59:40 10° SE daylight
23 Oct - 19:31:47 10° WNW 19:37:15 54° SW 19:43:17 10° SE daylight
23 Oct - 21:16:48 10° WSW 21:21:48 28° SSW 21:27:08 10° SE daylight
23 Oct - 23:01:40 10° SW 23:06:53 28° SSE 23:12:18 10° ESE daylight
24 Oct - 00:45:21 10° SW 00:51:28 52° SE 00:57:44 10° ENE daylight
24 Oct - 02:28:46 10° SW 02:34:55 54° WNW 02:41:06 10° NNE daylight
24 Oct - 04:14:04 10° WSW 04:16:58 13° W 04:19:52 10° NW daylight
24 Oct - 17:15:12 10° N 17:20:03 35° ENE 17:25:22 10° SE daylight
24 Oct - 18:57:28 10° NW 19:03:00 66° SW 19:09:07 10° SE daylight
24 Oct - 20:42:15 10° WSW 20:47:21 30° SSW 20:52:49 10° SE daylight
24 Oct - 22:27:19 10° SW 22:32:25 27° S 22:37:43 10° ESE daylight
25 Oct - 00:11:12 10° SW 00:17:10 44° SSE 00:23:16 10° ENE daylight
25 Oct - 01:54:34 10° SW 02:00:52 69° NW 02:07:12 10° NNE daylight
25 Oct - 03:39:03 10° WSW 03:43:11 18° WNW 03:47:19 10° NW daylight
25 Oct - 16:41:43 10° NNE 16:46:09 26° ENE 16:50:58 10° SE daylight
25 Oct - 18:23:15 10° NW 18:28:48 81° SW 18:34:56 10° SE daylight
25 Oct - 20:07:43 10° W 20:12:56 33° SSW 20:18:32 10° SE daylight
25 Oct - 21:52:54 10° SW 21:57:55 26° S 22:03:10 10° ESE daylight
25 Oct - 23:37:01 10° SW 23:42:48 39° SSE 23:48:46 10° E daylight
26 Oct - 01:20:23 10° SW 01:26:45 85° NW 01:33:09 10° NE daylight
26 Oct - 03:04:25 10° WSW 03:09:20 24° WNW 03:14:16 10° NNW daylight
26 Oct - 16:08:30 10° NNE 16:12:20 20° ENE 16:16:25 10° ESE daylight
26 Oct - 17:49:09 10° NW 17:54:39 81° NE 18:00:46 10° SE daylight
26 Oct - 19:33:12 10° W 19:38:32 38° SSW 19:44:18 10° SE daylight
26 Oct - 21:18:27 10° WSW 21:23:26 26° S 21:28:40 10° SE daylight
26 Oct - 23:02:48 10° SW 23:08:25 34° SSE 23:14:12 10° E daylight
27 Oct - 00:46:14 10° SW 00:52:35 79° SE 00:59:00 10° NE daylight
27 Oct - 02:29:58 10° SW 02:35:27 31° WNW 02:40:55 10° N daylight
27 Oct - 15:35:41 10° NE 15:38:33 14° ENE 15:41:32 10° ESE daylight
27 Oct - 17:15:10 10° NNW 17:20:34 64° NE 17:26:34 10° SE daylight
27 Oct - 18:58:45 10° WNW 19:04:10 44° SSW 19:10:06 10° SE daylight
27 Oct - 20:43:57 10° WSW 20:48:57 27° S 20:54:12 10° SE daylight
27 Oct - 22:28:33 10° SW 22:34:00 31° SSE 22:39:38 10° E daylight
28 Oct - 00:12:05 10° SW 00:18:22 65° SE 00:24:45 10° NE daylight
28 Oct - 01:55:38 10° SW 02:01:30 40° WNW 02:07:22 10° N daylight
28 Oct - 15:04:34 10° E 15:04:49 10° E 15:05:04 10° E visible
28 Oct - 16:41:18 10° NNW 16:46:32 49° ENE 16:52:20 10° SE daylight
28 Oct - 18:24:20 10° WNW 18:29:52 52° SW 18:35:55 10° SE daylight
28 Oct - 20:09:25 10° WSW 20:14:28 28° SSW 20:19:49 10° SE daylight
28 Oct - 21:54:15 10° SW 21:59:33 29° SSE 22:05:02 10° ESE daylight
28 Oct - 23:37:56 10° SW 23:44:06 54° SE 23:50:24 10° ENE daylight
29 Oct - 01:21:23 10° SW 01:27:30 52° WNW 01:33:38 10° NNE daylight
29 Oct - 03:06:58 10° WSW 03:09:29 13° W 03:11:59 10° WNW daylight
29 Oct - 16:07:35 10° N 16:12:34 37° ENE 16:18:03 10° SE daylight
29 Oct - 17:50:01 10° WNW 17:55:36 63° SW 18:01:45 10° SE daylight
29 Oct - 19:34:52 10° WSW 19:40:01 30° SSW 19:45:29 10° SE daylight
29 Oct - 21:19:55 10° SW 21:25:05 27° S 21:30:26 10° ESE daylight
29 Oct - 23:03:46 10° SW 23:09:48 46° SSE 23:15:58 10° ENE daylight
30 Oct - 00:47:09 10° SW 00:53:28 66° NW 00:59:45 10° NNE daylight
30 Oct - 02:31:47 10° WSW 02:35:43 17° WNW 02:39:37 10° NW daylight
30 Oct - 15:34:03 10° NNE 15:38:40 28° ENE 15:43:40 10° SE daylight
30 Oct - 17:15:47 10° NW 17:21:23 78° SW 17:27:34 10° SE daylight
30 Oct - 19:00:19 10° W 19:05:34 33° SSW 19:11:12 10° SE daylight
30 Oct - 20:45:31 10° SW 20:50:36 26° S 20:55:53 10° ESE daylight
30 Oct - 22:29:35 10° SW 22:35:28 40° SSE 22:41:28 10° E daylight
31 Oct - 00:12:59 10° SW 00:19:21 82° NW 00:25:44 10° NE daylight
31 Oct - 01:57:05 10° WSW 02:01:53 23° WNW 02:06:39 10° NNW daylight
31 Oct - 15:00:46 10° NNE 15:04:50 21° ENE 15:09:09 10° ESE daylight
31 Oct - 16:41:39 10° NW 16:47:13 85° NE 16:53:24 10° SE daylight
31 Oct - 18:25:48 10° W 18:31:10 37° SSW 18:36:57 10° SE daylight
31 Oct - 20:11:03 10° WSW 20:16:06 26° S 20:21:22 10° SE daylight
31 Oct - 21:55:23 10° SW 22:01:05 35° SSE 22:06:55 10° E daylight
31 Oct - 23:38:49 10° SW 23:45:12 82° SE 23:51:37 10° NE daylight
